Flag for South Africa Weather past 2 weeks in Port Elizabeth, South Africa

Now
55 °F

Clear.


Feels Like: 54 °F
Forecast: 53 / 70 °F
Wind: 7 mph from Northwest

Location: Port Elizabeth Airport

Current Time: May 26, 2015 at 12:35:59 AM

Latest Report: May 26, 2015 at 12:00 AM


Visibility: 10 mi

Pressure: 30.04 "Hg

Humidity: 77%

Dew point: 48 °F

Location of Port ElizabethLocation

Historic Weather in Port Elizabeth — Graph

°F

Port Elizabeth temperature yesterday

Maximum temperature yesterday: 68 °F (at 1:00 PM)
Minimum temperature yesterday: 55 °F (at 9:00 PM)
Average temperature yesterday: 62 °F

Past Weeks' High & Low Weather Summary

 TemperatureHumidityPressure
High88 °F (May 23, 2:00 PM)94% (May 11, 12:00 AM)30.42 "Hg (May 11, 12:00 AM)
Low48 °F (May 17, 6:00 AM)24% (May 23, 2:00 PM)29.83 "Hg (May 23, 2:00 PM)
Average63 °F76%30.06 "Hg
* Reported May 10 11:00 PM — May 25 11:00 PM, Port Elizabeth, Weather by CustomWeather, © 2015

Note: Actual official high and low records may vary slightly from our data, if they occured in-between our weather recording intervals... More about our weather records

Advertising

Port Elizabeth weather history for previous 24 hours

 ConditionsComfort  
Time TempWeatherWind HumidityBarometerVisibility
11:00 PM
Mon, May 25
55 °FClear.3 mph77%30.04 "Hg10 mi
10:00 PM57 °FClear.7 mph77%30.04 "Hg10 mi
9:00 PM55 °FClear.5 mph82%30.04 "Hg10 mi
8:00 PM57 °FClear.6 mph82%30.04 "Hg10 mi
7:00 PM57 °FClear.8 mph82%30.01 "Hg10 mi
6:00 PM59 °FPassing clouds.10 mph72%30.01 "HgN/A
5:00 PM63 °FPassing clouds.9 mph73%29.98 "HgN/A
4:00 PM64 °FPassing clouds.15 mph68%29.98 "HgN/A
3:00 PM66 °FSunny.18 mph60%29.98 "Hg10 mi
2:00 PM68 °FScattered clouds.20 mph56%29.98 "HgN/A
1:00 PM68 °FScattered clouds.21 mph56%29.98 "HgN/A
12:00 PM66 °FPassing clouds.21 mph64%30.01 "HgN/A
11:00 AM66 °FPassing clouds.22 mph68%30.01 "HgN/A
10:00 AM64 °FScattered clouds.15 mph73%30.01 "HgN/A
9:00 AM63 °FPassing clouds.15 mph77%30.01 "HgN/A
8:00 AM61 °FPassing clouds.14 mph83%29.98 "HgN/A
7:00 AM61 °FPassing clouds.16 mph83%29.95 "HgN/A
6:00 AM61 °FClear.16 mph88%29.95 "Hg10 mi
5:00 AM61 °FClear.16 mph83%29.92 "Hg10 mi
4:00 AM61 °FPassing clouds.16 mph83%29.92 "HgN/A
3:00 AM63 °FPassing clouds.16 mph77%29.92 "HgN/A
2:00 AM63 °FClear.16 mph83%29.92 "Hg10 mi
12:00 AM61 °FClear.16 mph88%29.92 "Hg10 mi
Weather by CustomWeather, © 2015

See weather overviewHow to use our weather pages